Home > Weather > Colón > Past weeks

Flag for Panama Weather for the Past 2 Weeks in Colón, Panama

Now
79 °F

Passing clouds.


Feels Like: 81 °F
Forecast: 79 / 86 °F
Wind: 7 mph from Northwest

Location: Panama Airport

Current Time: Feb 8, 2016 at 3:22:08 AM

Latest Report: Feb 8, 2016 at 3:00 AM


Visibility: N/A

Pressure: 29.86 "Hg

Humidity: 74%

Dew point: 70 °F

Location of ColónLocation

Historic Weather in Colón — Graph

°F

Colón Temperature Yesterday

Maximum temperature yesterday: 93 °F (at 12:00 PM)
Minimum temperature yesterday: 68 °F (at 4:00 AM)
Average temperature yesterday: 81 °F

High & Low Weather Summary for the Past Weeks

 TemperatureHumidityPressure
High95 °F (Jan 26, 3:00 PM)100% (Feb 1, 6:00 AM)29.95 "Hg (Feb 1, 6:00 AM)
Low66 °F (Feb 1, 6:00 AM)32% (Feb 7, 11:00 AM)29.74 "Hg (Jan 27, 4:00 PM)
Average81 °F70%29.85 "Hg
* Reported Jan 24 2:00 AM — Feb 8 2:00 AM, Colón, Weather by CustomWeather, © 2016

Note: Actual official high and low records may vary slightly from our data, if they occured in-between our weather recording intervals... More about our weather records

Advertising

Colón Weather History for the Previous 24 Hours

 ConditionsComfort  
Time TempWeatherWind HumidityBarometerVisibility
2:00 AM
Mon, Feb 8
79 °FPassing clouds.6 mph74%29.86 "HgN/A
1:00 AM79 °FPassing clouds.5 mph74%29.89 "HgN/A
12:00 AM79 °FPassing clouds.8 mph74%29.89 "HgN/A
11:00 PM
Sun, Feb 7
79 °FPassing clouds.10 mph74%29.89 "HgN/A
10:00 PM79 °FPassing clouds.6 mph70%29.89 "HgN/A
9:00 PM79 °FPassing clouds.No wind65%29.89 "HgN/A
8:00 PM79 °FPassing clouds.5 mph65%29.86 "HgN/A
7:00 PM82 °FPassing clouds.7 mph55%29.83 "HgN/A
6:00 PM84 °FPassing clouds.8 mph51%29.80 "HgN/A
5:00 PM90 °FPassing clouds.17 mph41%29.80 "HgN/A
4:00 PM91 °FPassing clouds.16 mph38%29.80 "HgN/A
3:00 PM91 °FPassing clouds.21 mph36%29.80 "HgN/A
2:00 PM93 °FPassing clouds.25 mph34%29.80 "HgN/A
1:00 PM93 °FPassing clouds.13 mph34%29.83 "HgN/A
12:00 PM93 °FPassing clouds.14 mph36%29.86 "HgN/A
11:00 AM91 °FPassing clouds.16 mph32%29.89 "HgN/A
10:00 AM88 °FPassing clouds.10 mph43%29.92 "HgN/A
9:00 AM84 °FPassing clouds.3 mph51%29.89 "HgN/A
8:00 AM81 °FPassing clouds.5 mph62%29.89 "HgN/A
7:00 AM68 °FPassing clouds.No wind88%29.89 "HgN/A
6:00 AM70 °FClear.No wind83%29.89 "Hg10 mi
5:00 AM68 °FClear.No wind88%29.89 "Hg10 mi
4:00 AM68 °FClear.No wind88%29.89 "Hg10 mi
3:00 AM70 °FClear.No wind83%29.89 "Hg10 mi
Weather by CustomWeather, © 2016

See weather overviewHow to use our weather pages